Location: Lafig�re
(44.4503°N, 4.0357°E)
Time: 14:38:20
(UTC+00:00)

Vanguard 2 Rocket - Pass Details

Date: 30 January 2021
Orbit: 554 x 3325 km, 32.9° (Epoch: 06 March)

Event Time Altitude Azimuth Distance (km) Brightness Sun altitude
Rises 16:16:13 0° 265° (W) 6,629 12.7 4.6°
Reaches altitude 10° 16:21:29 10° 260° (W) 5,217 12.4 3.8°
Maximum altitude 16:34:00 41° 198° (SSW) 2,320 9.5 1.8°
Drops below altitude 10° 16:41:27 10° 130° (SE) 3,132 9.4 0.6°
Sets 16:43:50 0° 123° (ESE) 3,816 9.8 0.2°
